Location: Chandolas
(44.4033°N, 4.2533°E)
Time: 02:34:55
(UTC+00:00)

Cosmos 1606 - Pass Details

Date: 15 November 2019
Orbit: 504 x 528 km, 82.5° (Epoch: 12 December)

Event Time Altitude Azimuth Distance (km) Brightness Sun altitude
Rises 06:02:08 0° 349° (NNW) 2,619 6.0 -6.8°
Reaches altitude 10° 06:04:16 10° 346° (NNW) 1,731 5.0 -6.5°
Maximum altitude 06:08:02 68° 264° (W) 553 2.6 -5.8°
Drops below altitude 10° 06:11:47 10° 181° (S) 1,726 5.6 -5.2°
Sets 06:13:55 0° 179° (S) 2,611 6.6 -4.9°
